[[{"header":{"parameterUnit":"m.s-1","parameterCategory":2,"la1":30.2991,"la2":30.254,"lo1":-89.0895,"lo2":-89.0444,"dy":0.0017,"dx":0.0017,"nx":28,"ny":28,"refTime":"2025-01-17T09:00:00:Z","depth":"0","parameterNumber":2,"parameterNumberName":"U-component_of_CURRENTS"},"data":[0,0,0,0,0,0,0,0,0,0,0,0,0,0,0,0,0,0,0,0,0,0,0,0,0,0,0,0,0,0,0,0,0,0,0,0,0,0,0,0,0,0,0,0,0,0,0,0,0,0,0,0,0,0,0,0,0,0,0.2788,0.2789,0,0.2815,0.2815,0.2815,0.275,0.2749,0.2747,0.2746,0.2722,0.2723,0.2723,0,0,0,0,0,0,0,0,0,0,0,0,0,0.2769,0.2768,0.2788,0.2789,0.279,0.2815,0.2815,0.2815,0.2751,0.2749,0.2747,0.2745,0.2722,0.2723,0.2724,0,0,0,0,0,0,0,0,0,0,0,0,0,0.2779,0.2768,0.2788,0.2764,0.2763,0.2815,0.2815,0.2815,0.2751,0.2749,0.2746,0.2744,0.2721,0.2722,0.2724,0.2779,0,0,0.2727,0.2728,0,0,0,0,0,0,0,0,0.2779,0.2779,0.2767,0.2766,0.2765,0.2782,0.28,0.2802,0.2752,0.275,0.2746,0.2743,0.2742,0.2742,0.2745,0.2777,0.2776,0.2728,0.2728,0.2729,0.2729,0,0,0,0,0,0,0,0.2778,0.2779,0.2793,0.2768,0.2767,0.2784,0.2781,0.28,0.2754,0.275,0.2747,0.2759,0.274,0.2744,0.2744,0.2776,0.2728,0.2729,0.2729,0.273,0.2864,0.2866,0,0,0,0,0,0,0.2783,0.2778,0.2793,0.2795,0.2772,0.2786,0.2783,0.2774,0.2755,0.2751,0.2761,0.2756,0.2743,0.2743,0.2743,0.2821,0.2729,0.273,0.2731,0.2861,0.2864,0.2867,0,0,0,0,0,0,0.2783,0.2784,0.2792,0.2792,0.2795,0.2788,0.278,0.2776,0.2782,0.2765,0.2759,0.2771,0.2741,0.2741,0.2778,0.2818,0.2731,0.2732,0.2857,0.2862,0.2866,0.2967,0,0,0,0,0,0,0.2781,0.2783,0.2791,0.2792,0.2795,0.2835,0.2782,0.2779,0.2796,0.2789,0.2772,0.2767,0.274,0.2776,0.2779,0.2819,0.2733,0.2854,0.2859,0.2864,0.2961,0.2975,0.2987,0,0,0,0,0,0.278,0.281,0.2791,0.2794,0.2802,0.2838,0.2841,0.2825,0.2799,0.2818,0.2809,0.2768,0.2811,0.278,0.2782,0.2823,0.2851,0.2858,0.2864,0.2955,0.2972,0.2986,0,0,0,0,0,0,0.282,0.2807,0.2785,0.2811,0.2826,0.2828,0.2858,0.2842,0.2851,0.2845,0.2809,0.2806,0.2857,0.2835,0.2801,0.288,0.2823,0.283,0.2892,0.2907,0.292,0.2942,0.2734,0,0,0,0,0,0.2831,0.2841,0.2836,0.2863,0.2871,0.2865,0.2882,0.287,0.2877,0.2876,0.2864,0.2863,0.2889,0.2891,0.2909,0.2953,0.2957,0.298,0.2994,0.3005,0.3027,0.3082,0.3102,0.2888,0.2888,0.2888,0,0,0.2859,0.2855,0.2862,0.2873,0.288,0.2906,0.2868,0.2904,0.2928,0.2878,0.2913,0.2918,0.2917,0.2966,0.2985,0.2946,0.3069,0.3013,0.3022,0.3038,0.3091,0.3112,0.313,0.2892,0.2891,0.2891,0,0,0.2916,0.2911,0.2929,0.2943,0.2961,0.2962,0.2975,0.2981,0.2986,0.3032,0.3006,0.3043,0.3062,0.3074,0.3082,0.3185,0.3148,0.3179,0.3249,0.3303,0.3321,0.3337,0.3369,0.3387,0.3171,0.3171,0.3171,0,0.2945,0.2957,0.295,0.2972,0.2993,0.2987,0.3017,0.304,0.3058,0.308,0.3057,0.3126,0.3122,0.3191,0.3223,0.3215,0.3228,0.3184,0.332,0.3335,0.335,0.3379,0.3398,0.3177,0.3176,0.3176,0.3175,0,0.2999,0.3017,0.3043,0.305,0.3078,0.3117,0.3133,0.3163,0.317,0.3188,0.3265,0.3276,0.3308,0.3319,0.3304,0.3403,0.3374,0.334,0.3276,0.3378,0.3402,0.3419,0.3185,0.3183,0.3181,0.318,0,0,0.3018,0.3065,0.3068,0.3087,0.3119,0.3147,0.3205,0.3254,0.3298,0.3335,0.3399,0.3463,0.3465,0.3478,0.3465,0.3512,0.3627,0.3472,0.3472,0.3499,0.3737,0.3601,0.3606,0.3609,0.3613,0.3616,0.3712,0,0.3051,0.3103,0.312,0.3183,0.3209,0.3232,0.3288,0.3338,0.3379,0.3444,0.3487,0.355,0.3525,0.3546,0.3599,0.3626,0.3678,0.3603,0.364,0.3642,0.3504,0.3624,0.3396,0.3453,0.3729,0.3732,0.3734,0,0.3073,0.3105,0.3162,0.3234,0.325,0.3291,0.3369,0.3421,0.3513,0.3549,0.3619,0.3646,0.374,0.3694,0.3808,0.3759,0.377,0.3782,0.3784,0.3636,0.3539,0.3398,0.3473,0.3378,0.376,0.3758,0.3756,0,0.306,0.3132,0.3179,0.3201,0.3281,0.3319,0.3367,0.3451,0.3521,0.3615,0.3678,0.3768,0.3823,0.3875,0.3898,0.3867,0.4006,0.3954,0.3845,0.3834,0.3638,0.3603,0.3618,0.4046,0.4046,0.4045,0.4045,0,0.3076,0.3115,0.3178,0.3203,0.3282,0.3326,0.3423,0.3478,0.3584,0.3672,0.3732,0.3803,0.3876,0.3947,0.3954,0.3955,0.405,0.3894,0.3866,0.3664,0.3632,0.3534,0.3512,0.4049,0.4048,0.4048,0.4047,0,0.3072,0.3102,0.3166,0.3247,0.3277,0.3334,0.3462,0.354,0.3622,0.3735,0.3773,0.3878,0.394,0.3991,0.4066,0.4012,0.39,0.3996,0.3742,0.3682,0.3448,0.3439,0.3332,0.3249,0.39,0.3897,0.3895,0,0.3089,0.3114,0.3195,0.3239,0.3283,0.3372,0.3444,0.3547,0.3629,0.3759,0.3818,0.3908,0.3918,0.3974,0.3892,0.3871,0.3811,0.3665,0.3562,0.3435,0.3408,0.3303,0.3235,0.3352,0.3345,0.334,0.3336,0,0.3153,0.3169,0.3231,0.3275,0.3347,0.3433,0.3533,0.3594,0.37,0.3761,0.3807,0.3811,0.3799,0.3641,0.3606,0.3566,0.3456,0.3553,0.35,0.3057,0.2869,0.2772,0.329,0.3289,0.3293,0.3297,0.3299,0.3301,0.3226,0.3269,0.3315,0.3341,0.3404,0.3452,0.3469,0.3544,0.3604,0.3579,0.369,0.3553,0.345,0.3323,0.3274,0.3027,0.3106,0.2911,0.294,0.2867,0.2695,0.31,0.3008,0.3011,0.3013,0.3016,0.3018,0,0.3333,0.3345,0.338,0.3389,0.3378,0.3423,0.3491,0.3437,0.3389,0.3356,0.3304,0.3089,0.2908,0.2805,0.2573,0.2435,0.2338,0.2391,0.2214,0.2204,0.2624,0.2504,0.2201,0.2201,0.2201,0.2201,0.2201,0.2202,0.3408,0.344,0.3398,0.3335,0.3316,0.3251,0.3241,0.3142,0.3068,0.2793,0.2576,0.2515,0.247,0.2318,0.2096,0.2039,0.1931,0.1785,0.19,0.2208,0.2258,0.2307,0.219,0.1825,0.1825,0.1322,0.1318,0.1316]},{"header":{"parameterUnit":"m.s-1","parameterCategory":2,"la1":30.2991,"la2":30.254,"lo1":-89.0895,"lo2":-89.0444,"dy":0.0017,"dx":0.0017,"nx":28,"ny":28,"refTime":"2025-01-17T09:00:00:Z","depth":"0","parameterNumber":3,"parameterNumberName":"V-component_of_CURRENTS"},"data":[0,0,0,0,0,0,0,0,0,0,0,0,0,0,0,0,0,0,0,0,0,0,0,0,0,0,0,0,0,0,0,0,0,0,0,0,0,0,0,0,0,0,0,0,0,0,0,0,0,0,0,0,0,0,0,0,0,0,0.0453,0.0453,0,0.0462,0.0461,0.0461,0.042,0.0419,0.0418,0.0418,0.0372,0.0372,0.0371,0,0,0,0,0,0,0,0,0,0,0,0,0,0.0375,0.0377,0.0453,0.0453,0.0454,0.0462,0.0461,0.0461,0.042,0.0419,0.0418,0.0417,0.0372,0.0372,0.0371,0,0,0,0,0,0,0,0,0,0,0,0,0,0.0396,0.0377,0.0453,0.0437,0.0436,0.0462,0.0461,0.0461,0.0421,0.0419,0.0418,0.0417,0.0373,0.0372,0.0371,0.0394,0,0,0.037,0.0369,0,0,0,0,0,0,0,0,0.0395,0.0398,0.0439,0.0438,0.0437,0.0442,0.0418,0.0437,0.0421,0.0423,0.0418,0.0416,0.0394,0.0391,0.0392,0.0392,0.039,0.0369,0.0369,0.0369,0.0369,0,0,0,0,0,0,0,0.0393,0.0398,0.0453,0.044,0.0439,0.0421,0.0422,0.0421,0.0412,0.0422,0.042,0.0427,0.0392,0.0392,0.039,0.0389,0.037,0.0369,0.0369,0.0368,0.0386,0.0387,0,0,0,0,0,0,0.0403,0.0397,0.0453,0.0453,0.0416,0.0424,0.0425,0.0439,0.0413,0.0409,0.0429,0.0426,0.0394,0.0391,0.0388,0.0415,0.0369,0.0368,0.0368,0.0385,0.0386,0.0387,0,0,0,0,0,0,0.0401,0.0408,0.0452,0.0427,0.0432,0.0427,0.0442,0.044,0.0435,0.0419,0.0413,0.0427,0.0393,0.0389,0.0388,0.0412,0.0368,0.0367,0.0384,0.0386,0.0387,0.0466,0,0,0,0,0,0,0.0399,0.0407,0.0417,0.0428,0.0434,0.0474,0.0444,0.0441,0.0444,0.0439,0.0416,0.041,0.0391,0.0389,0.0388,0.0411,0.0367,0.0383,0.0385,0.0386,0.0462,0.047,0.0476,0,0,0,0,0,0.0396,0.0421,0.0418,0.0425,0.0449,0.0476,0.0477,0.0465,0.0445,0.0454,0.0433,0.0411,0.0398,0.039,0.0388,0.0411,0.0382,0.0384,0.0386,0.0459,0.0468,0.0476,0,0,0,0,0,0,0.0391,0.042,0.0416,0.0447,0.0463,0.047,0.0481,0.047,0.0462,0.0454,0.0425,0.0419,0.0428,0.0408,0.04,0.0419,0.0385,0.0387,0.0442,0.045,0.0457,0.0485,0.0367,0,0,0,0,0,0.0398,0.0421,0.0442,0.0466,0.0478,0.0478,0.0485,0.0481,0.0479,0.0473,0.0456,0.0439,0.0437,0.0433,0.0426,0.044,0.0425,0.0451,0.0458,0.0464,0.0484,0.0488,0.0498,0.0393,0.0393,0.0393,0,0,0.0399,0.0421,0.0431,0.0466,0.0476,0.0501,0.0478,0.0499,0.0515,0.0471,0.048,0.0465,0.0446,0.0461,0.0463,0.0445,0.0481,0.0466,0.0472,0.0489,0.0491,0.0502,0.0511,0.0395,0.0394,0.0394,0,0,0.0421,0.044,0.0465,0.0484,0.0511,0.052,0.0527,0.0539,0.0539,0.0555,0.0526,0.0529,0.0519,0.0516,0.0513,0.0555,0.052,0.0543,0.0602,0.0606,0.0615,0.0623,0.0602,0.0607,0.0545,0.0546,0.0546,0,0.0416,0.0461,0.0475,0.0506,0.0529,0.053,0.0562,0.057,0.0576,0.0592,0.0567,0.0577,0.0552,0.0585,0.0593,0.0574,0.0559,0.0573,0.0617,0.0624,0.0631,0.0607,0.0613,0.055,0.0549,0.0549,0.0548,0,0.0459,0.0492,0.0513,0.0554,0.0577,0.061,0.063,0.0649,0.065,0.066,0.0693,0.0672,0.0682,0.067,0.0644,0.0683,0.065,0.0627,0.06,0.0647,0.0618,0.0622,0.0555,0.0554,0.0553,0.0552,0,0,0.0458,0.0527,0.0535,0.057,0.0609,0.0641,0.0676,0.0723,0.0764,0.0764,0.082,0.0808,0.0804,0.0799,0.0771,0.077,0.0788,0.0722,0.072,0.0708,0.0781,0.0746,0.0746,0.0773,0.0774,0.0775,0.0736,0,0.0487,0.056,0.0583,0.0652,0.0697,0.0717,0.0758,0.0796,0.0824,0.0877,0.0876,0.0913,0.0851,0.0868,0.0859,0.082,0.0805,0.08,0.0731,0.0729,0.0699,0.0752,0.073,0.0692,0.0739,0.074,0.074,0,0.0527,0.0576,0.0648,0.073,0.0752,0.0787,0.0873,0.0909,0.0973,0.1,0.1036,0.1036,0.1054,0.0991,0.095,0.0949,0.0873,0.0827,0.0823,0.0773,0.0703,0.0655,0.0697,0.061,0.0745,0.0745,0.0745,0,0.055,0.0628,0.0693,0.0718,0.08,0.0839,0.0882,0.0949,0.1012,0.1085,0.115,0.1153,0.1182,0.1107,0.1014,0.0983,0.096,0.0901,0.0792,0.0787,0.0748,0.0737,0.0708,0.0863,0.0863,0.0863,0.0863,0,0.0595,0.0649,0.0713,0.0753,0.0848,0.0879,0.0981,0.103,0.1117,0.1225,0.1219,0.1307,0.1214,0.1193,0.107,0.0961,0.1,0.0823,0.079,0.0771,0.0764,0.0668,0.0622,0.0861,0.0862,0.0862,0.0862,0,0.0632,0.0667,0.0751,0.0833,0.0867,0.0936,0.1053,0.1133,0.1202,0.1347,0.1384,0.1434,0.1408,0.1295,0.1183,0.1046,0.0875,0.087,0.0845,0.081,0.061,0.057,0.0512,0.0475,0.0743,0.0742,0.0741,0,0.0666,0.071,0.0808,0.0871,0.0917,0.1015,0.1095,0.1175,0.1273,0.1437,0.1525,0.1548,0.1592,0.1413,0.1181,0.0968,0.0865,0.0784,0.072,0.062,0.0551,0.0522,0.0493,0.0683,0.0682,0.0681,0.068,0,0.0735,0.0759,0.0828,0.0944,0.1036,0.1143,0.1261,0.1353,0.1472,0.1605,0.1761,0.1806,0.1646,0.1442,0.1144,0.0981,0.0728,0.0755,0.0672,0.0531,0.0481,0.0422,0.0669,0.0672,0.0673,0.0674,0.0674,0.0674,0.0785,0.0841,0.0921,0.1031,0.1135,0.1262,0.1363,0.1504,0.1673,0.1871,0.1906,0.1975,0.1674,0.1273,0.1057,0.0641,0.0662,0.0497,0.0463,0.0447,0.0406,0.0628,0.0584,0.0584,0.0584,0.0584,0.0585,0,0.0846,0.0904,0.1009,0.1133,0.1238,0.1286,0.1472,0.1592,0.18,0.1947,0.2074,0.1928,0.1573,0.1189,0.0641,0.0391,0.0308,0.0269,0.0226,0.0214,0.0424,0.0416,0.0312,0.0312,0.0312,0.0312,0.0312,0.0312,0.0885,0.0975,0.1015,0.1184,0.1277,0.1436,0.1541,0.174,0.1882,0.2032,0.2031,0.2019,0.1721,0.0857,0.0302,0.0182,0.0051,0.0,-0.0037,0.0097,0.0116,0.0134,0.0117,-0.0048,-0.0048,-0.0234,-0.0236,-0.0237]}],[{"header":{"parameterUnit":"m.s-1","parameterCategory":2,"la1":30.2991,"la2":30.254,"lo1":-89.0895,"lo2":-89.0444,"dy":0.0017,"dx":0.0017,"nx":28,"ny":28,"refTime":"2025-01-17T09:00:00:Z","depth":"2","parameterNumber":2,"parameterNumberName":"U-component_of_CURRENTS"},"data":[0,0,0,0,0,0,0,0,0,0,0,0,0,0,0,0,0,0,0,0,0,0,0,0,0,0,0,0,0,0,0,0,0,0,0,0,0,0,0,0,0,0,0,0,0,0,0,0,0,0,0,0,0,0,0,0,0,0,0.2056,0.2057,0,0.2074,0.2073,0.2073,0.2038,0.2038,0.2038,0.2038,0.2036,0.2036,0.2036,0,0,0,0,0,0,0,0,0,0,0,0,0,0.2005,0.2005,0.2056,0.2058,0.2059,0.2074,0.2073,0.2073,0.2038,0.2038,0.2038,0.2038,0.2036,0.2036,0.2036,0,0,0,0,0,0,0,0,0,0,0,0,0,0.2015,0.2005,0.2056,0.2051,0.2052,0.2074,0.2073,0.2072,0.2038,0.2038,0.2038,0.2038,0.2036,0.2036,0.2036,0.2041,0,0,0.2036,0.2037,0,0,0,0,0,0,0,0,0.2014,0.2015,0.2051,0.2052,0.2053,0.2063,0.2055,0.2065,0.2038,0.2032,0.2038,0.2037,0.205,0.2049,0.2038,0.2041,0.2041,0.2037,0.2037,0.2037,0.2037,0,0,0,0,0,0,0,0.2014,0.2015,0.2052,0.2052,0.2054,0.2053,0.2053,0.2056,0.2034,0.2033,0.2033,0.2052,0.2049,0.2038,0.2038,0.2041,0.2037,0.2037,0.2037,0.2037,0.2142,0.2144,0,0,0,0,0,0,0.2033,0.2014,0.2052,0.2054,0.2045,0.2055,0.2055,0.2051,0.2034,0.2034,0.2052,0.2051,0.2038,0.2038,0.2038,0.2109,0.2037,0.2037,0.2037,0.2139,0.2142,0.2145,0,0,0,0,0,0,0.2031,0.2035,0.2052,0.2044,0.2048,0.2057,0.2053,0.2052,0.2058,0.2051,0.2049,0.2063,0.2038,0.2038,0.2065,0.2107,0.2037,0.2037,0.2136,0.214,0.2144,0.221,0,0,0,0,0,0,0.2029,0.2033,0.2046,0.2045,0.2049,0.2078,0.2055,0.2053,0.2075,0.2072,0.206,0.2058,0.2037,0.2065,0.2065,0.2105,0.2037,0.2132,0.2138,0.2143,0.2205,0.2216,0.2226,0,0,0,0,0,0.2027,0.2054,0.2046,0.2052,0.2062,0.208,0.2081,0.208,0.2076,0.2082,0.2084,0.2059,0.2098,0.2067,0.2067,0.2108,0.213,0.2136,0.2142,0.22,0.2214,0.2226,0,0,0,0,0,0,0.2055,0.2054,0.2045,0.2074,0.2082,0.2079,0.2105,0.2096,0.2099,0.2109,0.2082,0.2082,0.2132,0.2114,0.208,0.2158,0.2115,0.2122,0.216,0.2173,0.2183,0.2214,0.2037,0,0,0,0,0,0.2065,0.2072,0.2075,0.2102,0.2111,0.2107,0.212,0.2119,0.2125,0.2125,0.2117,0.2128,0.2155,0.2157,0.2176,0.2202,0.2211,0.2235,0.2246,0.2255,0.2284,0.2319,0.2335,0.2165,0.2165,0.2165,0,0,0.2081,0.2091,0.2092,0.2108,0.2115,0.2128,0.2111,0.2146,0.216,0.2128,0.2152,0.217,0.2177,0.2218,0.2238,0.2204,0.2311,0.2263,0.227,0.2294,0.2327,0.2344,0.2358,0.2169,0.2169,0.2168,0,0,0.2118,0.2128,0.2138,0.2147,0.2176,0.2175,0.219,0.2196,0.2203,0.2234,0.223,0.2274,0.2287,0.2303,0.2313,0.2396,0.2379,0.2406,0.2465,0.2499,0.2513,0.2525,0.2564,0.258,0.2394,0.2395,0.2395,0,0.2137,0.2153,0.215,0.2169,0.2193,0.2197,0.2221,0.2228,0.2242,0.2272,0.2258,0.234,0.2334,0.2403,0.2433,0.242,0.2439,0.2407,0.2511,0.2523,0.2535,0.2572,0.2588,0.2399,0.2398,0.2398,0.2397,0,0.2171,0.219,0.2211,0.222,0.2241,0.2276,0.2287,0.231,0.2331,0.2352,0.244,0.2447,0.2492,0.2505,0.2492,0.2581,0.257,0.2529,0.2472,0.2556,0.259,0.2605,0.2404,0.2403,0.2402,0.2401,0,0,0.2185,0.2222,0.2228,0.2235,0.2278,0.2289,0.2338,0.2386,0.2433,0.2471,0.2539,0.2603,0.2626,0.2643,0.2638,0.2672,0.2761,0.264,0.264,0.2669,0.2852,0.2708,0.271,0.2732,0.2735,0.2737,0.2845,0,0.2212,0.2246,0.2269,0.2304,0.2318,0.235,0.239,0.2439,0.2495,0.2556,0.2614,0.2687,0.2669,0.2706,0.2739,0.2766,0.2805,0.2737,0.2777,0.278,0.2631,0.2724,0.2495,0.2559,0.2859,0.2862,0.2864,0,0.2221,0.2251,0.2294,0.2333,0.2347,0.2382,0.2462,0.2501,0.2601,0.2646,0.274,0.2785,0.2875,0.2828,0.2927,0.2886,0.2888,0.2899,0.2901,0.2757,0.2663,0.2525,0.2575,0.2889,0.2887,0.2885,0.2883,0,0.2209,0.2252,0.2293,0.2308,0.2366,0.2412,0.2455,0.2551,0.2611,0.2727,0.2802,0.2893,0.2953,0.2991,0.3011,0.2984,0.31,0.3046,0.2928,0.2918,0.2728,0.2695,0.3119,0.3119,0.3119,0.3118,0.3118,0,0.2217,0.2243,0.2292,0.2322,0.2376,0.2417,0.2529,0.2565,0.268,0.2756,0.2858,0.2928,0.3001,0.3065,0.3062,0.3044,0.3135,0.2976,0.2944,0.2744,0.2713,0.2994,0.2978,0.3122,0.3121,0.3121,0.312,0,0.2199,0.2234,0.227,0.2346,0.2378,0.2415,0.256,0.2623,0.2739,0.2839,0.2885,0.2996,0.306,0.3116,0.3169,0.3098,0.3099,0.3061,0.2825,0.2761,0.2891,0.2878,0.2966,0.2962,0.2959,0.2956,0.2953,0,0.2208,0.2222,0.2286,0.2317,0.2369,0.2462,0.2524,0.2633,0.2684,0.2856,0.2862,0.3001,0.301,0.3057,0.2982,0.2959,0.3041,0.2719,0.261,0.2919,0.288,0.2872,0.2864,0.2405,0.2398,0.2393,0.2388,0,0.2216,0.2228,0.227,0.2337,0.2395,0.2455,0.2538,0.2581,0.2684,0.2752,0.2797,0.2841,0.2871,0.2719,0.2691,0.2639,0.2702,0.2602,0.3013,0.2451,0.239,0.2351,0.2362,0.234,0.2344,0.2348,0.2351,0.2353,0.2217,0.2238,0.2289,0.2333,0.2392,0.241,0.242,0.247,0.2509,0.2511,0.2617,0.2568,0.2563,0.2378,0.2285,0.2216,0.2395,0.2284,0.2301,0.2325,0.2213,0.2146,0.2031,0.2034,0.2036,0.2039,0.2041,0,0.218,0.2204,0.2278,0.2294,0.2294,0.2362,0.2379,0.2316,0.2257,0.229,0.2276,0.2065,0.1954,0.1971,0.1775,0.1731,0.1726,0.1666,0.1658,0.1708,0.1751,0.1611,0.1269,0.1267,0.1264,0.1262,0,0,0.2165,0.2181,0.2215,0.2177,0.2193,0.2137,0.211,0.2003,0.1968,0.1854,0.1793,0.1892,0.1925,0.1598,0.1529,0.1373,0.1536,0.1311,0.1933,0.1977,0.2018,0.211,0.1948,0,0,0,0,0]},{"header":{"parameterUnit":"m.s-1","parameterCategory":2,"la1":30.2991,"la2":30.254,"lo1":-89.0895,"lo2":-89.0444,"dy":0.0017,"dx":0.0017,"nx":28,"ny":28,"refTime":"2025-01-17T09:00:00:Z","depth":"2","parameterNumber":3,"parameterNumberName":"V-component_of_CURRENTS"},"data":[0,0,0,0,0,0,0,0,0,0,0,0,0,0,0,0,0,0,0,0,0,0,0,0,0,0,0,0,0,0,0,0,0,0,0,0,0,0,0,0,0,0,0,0,0,0,0,0,0,0,0,0,0,0,0,0,0,0,0.0227,0.0227,0,0.0234,0.0234,0.0234,0.0223,0.0223,0.0222,0.0222,0.0197,0.0196,0.0196,0,0,0,0,0,0,0,0,0,0,0,0,0,0.0168,0.0169,0.0227,0.0227,0.0227,0.0234,0.0234,0.0234,0.0223,0.0223,0.0222,0.0222,0.0197,0.0197,0.0196,0,0,0,0,0,0,0,0,0,0,0,0,0,0.0184,0.0169,0.0227,0.0224,0.0224,0.0234,0.0234,0.0234,0.0223,0.0223,0.0222,0.0222,0.0197,0.0197,0.0196,0.0197,0,0,0.0194,0.0193,0,0,0,0,0,0,0,0,0.0183,0.0186,0.0224,0.0224,0.0225,0.0229,0.0204,0.022,0.0223,0.0221,0.0222,0.0222,0.0206,0.0205,0.0204,0.0195,0.0194,0.0193,0.0193,0.0193,0.0192,0,0,0,0,0,0,0,0.0182,0.0185,0.0227,0.0225,0.0225,0.0211,0.0213,0.0207,0.0213,0.0221,0.0221,0.0225,0.0206,0.0205,0.0203,0.0194,0.0193,0.0193,0.0192,0.0192,0.0185,0.0185,0,0,0,0,0,0,0.0188,0.0185,0.0227,0.0228,0.0205,0.0212,0.0214,0.0226,0.0214,0.0212,0.0226,0.0225,0.0206,0.0204,0.0202,0.0217,0.0193,0.0192,0.0192,0.0184,0.0185,0.0185,0,0,0,0,0,0,0.0187,0.0192,0.0227,0.0207,0.0211,0.0214,0.0227,0.0226,0.0227,0.0218,0.0215,0.0227,0.0206,0.0204,0.02,0.0216,0.0192,0.0191,0.0184,0.0184,0.0185,0.0238,0,0,0,0,0,0,0.0185,0.0192,0.0198,0.0208,0.0213,0.0241,0.0227,0.0227,0.0231,0.023,0.0218,0.0215,0.0206,0.0201,0.0199,0.0214,0.019,0.0184,0.0184,0.0185,0.0236,0.024,0.0244,0,0,0,0,0,0.0183,0.0199,0.0199,0.0204,0.0224,0.0242,0.0243,0.0242,0.0232,0.0239,0.0226,0.0216,0.0203,0.0201,0.0198,0.0214,0.0184,0.0184,0.0185,0.0234,0.0239,0.0243,0,0,0,0,0,0,0.0176,0.02,0.02,0.0222,0.0234,0.0241,0.0249,0.0244,0.024,0.0238,0.022,0.0217,0.0221,0.0206,0.0204,0.0211,0.0191,0.0191,0.0229,0.0234,0.0238,0.0267,0.019,0,0,0,0,0,0.0179,0.0198,0.0214,0.0231,0.024,0.0242,0.0248,0.0251,0.025,0.0248,0.0237,0.0226,0.0221,0.0219,0.0212,0.0215,0.0201,0.0222,0.0226,0.0229,0.0251,0.0233,0.0238,0.0187,0.0187,0.0187,0,0,0.0178,0.0196,0.0204,0.0231,0.0239,0.0261,0.0245,0.0263,0.0277,0.0246,0.0255,0.024,0.0225,0.0231,0.0231,0.0221,0.0233,0.023,0.0234,0.0253,0.0234,0.024,0.0244,0.0187,0.0187,0.0187,0,0,0.0198,0.0206,0.0232,0.0245,0.0268,0.0275,0.0282,0.0293,0.0293,0.0302,0.0282,0.028,0.0267,0.0265,0.0261,0.0281,0.0255,0.0271,0.0317,0.03,0.0305,0.0308,0.0287,0.0288,0.0273,0.0273,0.0273,0,0.0195,0.0235,0.0241,0.0269,0.0286,0.0284,0.0316,0.0318,0.0323,0.0333,0.0312,0.0311,0.0289,0.0309,0.0313,0.0293,0.0275,0.0302,0.0307,0.031,0.0313,0.029,0.0291,0.0276,0.0276,0.0275,0.0275,0,0.0238,0.0266,0.0283,0.0321,0.0337,0.0365,0.0375,0.0387,0.0384,0.0389,0.0404,0.0378,0.0381,0.0367,0.0346,0.0362,0.0338,0.0314,0.0299,0.0322,0.0295,0.0295,0.028,0.0279,0.0278,0.0277,0,0,0.0249,0.0303,0.031,0.034,0.037,0.0394,0.0419,0.0454,0.0484,0.0472,0.0507,0.0487,0.0475,0.0469,0.044,0.0424,0.0416,0.0382,0.038,0.0368,0.0374,0.0329,0.0324,0.0388,0.0389,0.0389,0.0343,0,0.0285,0.0352,0.0367,0.0426,0.0464,0.0471,0.0501,0.0525,0.0539,0.0567,0.0546,0.0568,0.0512,0.0521,0.0494,0.0446,0.042,0.0431,0.0347,0.0345,0.0309,0.0324,0.0338,0.0296,0.0343,0.0343,0.0343,0,0.0329,0.0372,0.0438,0.0498,0.0515,0.0547,0.0608,0.0634,0.0666,0.0676,0.0688,0.0673,0.0665,0.0606,0.0536,0.0543,0.0466,0.0416,0.0412,0.0359,0.0301,0.0281,0.0294,0.0343,0.0343,0.0343,0.0343,0,0.0355,0.0423,0.0481,0.0499,0.0562,0.0596,0.0632,0.0675,0.0723,0.0756,0.0802,0.0768,0.0774,0.0683,0.0574,0.0557,0.0485,0.0443,0.033,0.0325,0.0317,0.0311,0.0386,0.0386,0.0386,0.0387,0.0387,0,0.0397,0.0444,0.0502,0.0536,0.0619,0.0639,0.0728,0.0757,0.0819,0.0898,0.0866,0.0915,0.0794,0.0739,0.0613,0.0479,0.051,0.0351,0.0316,0.0333,0.0329,0.0355,0.0352,0.0385,0.0385,0.0385,0.0386,0,0.0424,0.0457,0.0531,0.0605,0.0638,0.0698,0.0806,0.0871,0.0918,0.1021,0.1044,0.1034,0.0958,0.0823,0.0676,0.0543,0.0411,0.0347,0.0373,0.0342,0.0249,0.0249,0.0223,0.0221,0.022,0.0219,0.0217,0,0.0446,0.0485,0.0584,0.0645,0.0687,0.0779,0.0854,0.0919,0.1003,0.1098,0.116,0.1123,0.1097,0.0864,0.0637,0.0414,0.039,0.027,0.0234,0.0267,0.0235,0.0238,0.024,0.024,0.0239,0.0238,0.0238,0,0.0487,0.0516,0.0581,0.0711,0.0802,0.0906,0.102,0.1108,0.1194,0.1267,0.1345,0.1325,0.111,0.0884,0.0576,0.0423,0.0306,0.0247,0.0292,0.0273,0.0277,0.0247,0.025,0.0232,0.0232,0.0233,0.0233,0.0233,0.0518,0.0572,0.0664,0.0789,0.0895,0.1037,0.114,0.125,0.1377,0.1485,0.1449,0.1394,0.1153,0.0741,0.0498,0.0245,0.0254,0.0153,0.0157,0.0162,0.0167,0.0167,0.0102,0.0102,0.0102,0.0102,0.0102,0,0.0563,0.0631,0.0744,0.0893,0.101,0.1062,0.1253,0.1343,0.1486,0.1523,0.1539,0.1271,0.1023,0.0754,0.0375,0.0142,0.0137,0.0067,0.012,0.0128,0.0134,0.0139,0.0065,0.0065,0.0064,0.0063,0,0,0.0593,0.0699,0.0761,0.0962,0.1066,0.1239,0.1353,0.147,0.1538,0.1545,0.1483,0.1392,0.1076,0.0791,0.0493,0.0285,0.0257,0.0236,0.0288,0.0394,0.0403,0.0203,0.0222,0,0,0,0,0]}],[{"header":{"parameterUnit":"m.s-1","parameterCategory":2,"la1":30.2991,"la2":30.254,"lo1":-89.0895,"lo2":-89.0444,"dy":0.0017,"dx":0.0017,"nx":28,"ny":28,"refTime":"2025-01-17T09:00:00:Z","depth":"4","parameterNumber":2,"parameterNumberName":"U-component_of_CURRENTS"},"data":[0,0,0,0,0,0,0,0,0,0,0,0,0,0,0,0,0,0,0,0,0,0,0,0,0,0,0,0,0,0,0,0,0,0,0,0,0,0,0,0,0,0,0,0,0,0,0,0,0,0,0,0,0,0,0,0,0,0,0.1031,0.1031,0,0.1068,0.1069,0.107,0.1115,0.1116,0.1116,0.1116,0.1159,0.116,0.1161,0,0,0,0,0,0,0,0,0,0,0,0,0,0.1026,0.1027,0.1031,0.1031,0.1031,0.1068,0.1069,0.107,0.1115,0.1116,0.1116,0.1116,0.1158,0.116,0.1161,0,0,0,0,0,0,0,0,0,0,0,0,0,0.1048,0.1027,0.1031,0.1054,0.1056,0.1068,0.1069,0.107,0.1115,0.1116,0.1116,0.1116,0.1158,0.1159,0.1161,0.1163,0,0,0.1165,0.1166,0,0,0,0,0,0,0,0,0.1046,0.1048,0.1051,0.1053,0.1055,0.1083,0.1083,0.11,0.1115,0.1099,0.1116,0.1116,0.113,0.1134,0.1148,0.1165,0.1167,0.1165,0.1166,0.1167,0.1167,0,0,0,0,0,0,0,0.1045,0.1047,0.1052,0.1051,0.1053,0.1071,0.1075,0.1087,0.1117,0.11,0.1102,0.1097,0.1132,0.1146,0.1149,0.1167,0.1165,0.1166,0.1167,0.1168,0.1281,0.1283,0,0,0,0,0,0,0.1027,0.1046,0.105,0.1052,0.1045,0.107,0.1075,0.1078,0.1116,0.1121,0.1097,0.1099,0.1144,0.1147,0.1151,0.121,0.1167,0.1168,0.1169,0.1278,0.1281,0.1283,0,0,0,0,0,0,0.1027,0.1028,0.1049,0.1045,0.1048,0.1069,0.1073,0.1078,0.1111,0.1113,0.1119,0.1125,0.1144,0.1149,0.1181,0.1209,0.1169,0.117,0.1276,0.1279,0.1282,0.1293,0,0,0,0,0,0,0.1027,0.1028,0.1043,0.1044,0.1047,0.1068,0.1072,0.1079,0.1104,0.1108,0.1139,0.1142,0.1145,0.1179,0.1182,0.1211,0.1171,0.1273,0.1277,0.1281,0.129,0.1296,0.1301,0,0,0,0,0,0.1027,0.1031,0.1044,0.1045,0.1062,0.1068,0.1073,0.1092,0.1105,0.1124,0.1146,0.1142,0.1208,0.1181,0.1185,0.1214,0.1271,0.1276,0.1281,0.1287,0.1295,0.1301,0,0,0,0,0,0,0.104,0.1036,0.105,0.1056,0.1069,0.1074,0.1093,0.1103,0.1138,0.1153,0.1156,0.1161,0.1206,0.1213,0.1183,0.1264,0.1244,0.125,0.1248,0.1255,0.1261,0.1267,0.1172,0,0,0,0,0,0.1048,0.1049,0.1055,0.1062,0.1075,0.1092,0.1103,0.1117,0.1134,0.1152,0.1171,0.1201,0.1227,0.1242,0.1268,0.13,0.1316,0.1329,0.1335,0.1339,0.1351,0.1406,0.1417,0.1299,0.1299,0.1299,0,0,0.1051,0.1051,0.1051,0.1065,0.1084,0.1098,0.1102,0.1126,0.1143,0.1149,0.1195,0.1221,0.1242,0.1284,0.1305,0.1292,0.1381,0.1346,0.1349,0.1359,0.1412,0.1424,0.1434,0.1303,0.1302,0.1301,0,0,0.105,0.1067,0.1073,0.1086,0.111,0.1118,0.1128,0.1154,0.118,0.1214,0.1233,0.1277,0.131,0.1336,0.1349,0.1405,0.1411,0.1423,0.1451,0.1504,0.1513,0.1522,0.1542,0.1553,0.1423,0.1423,0.1423,0,0.1066,0.1065,0.1078,0.1092,0.1103,0.1127,0.1145,0.1168,0.1203,0.1231,0.1233,0.1323,0.1335,0.1389,0.1411,0.1416,0.144,0.1413,0.1509,0.1518,0.1526,0.1546,0.1557,0.1424,0.1424,0.1424,0.1423,0,0.1063,0.1077,0.1083,0.1106,0.1127,0.1142,0.117,0.1211,0.1241,0.1263,0.1339,0.137,0.1429,0.1439,0.1435,0.1514,0.1508,0.1507,0.1482,0.1538,0.1555,0.1567,0.1425,0.1425,0.1425,0.1424,0,0,0.1059,0.1078,0.1084,0.11,0.1137,0.1149,0.1195,0.1239,0.1282,0.1331,0.1394,0.1441,0.1484,0.1505,0.1526,0.1562,0.163,0.1563,0.1566,0.1568,0.1734,0.159,0.1589,0.1649,0.1651,0.1653,0.1714,0,0.106,0.1077,0.1091,0.1116,0.1131,0.1175,0.1212,0.1263,0.1314,0.1384,0.1439,0.1508,0.15,0.155,0.1588,0.1635,0.1665,0.1612,0.1694,0.1696,0.1548,0.1599,0.1662,0.1723,0.1726,0.1728,0.1729,0,0.105,0.1065,0.1089,0.1126,0.1142,0.1166,0.1248,0.1294,0.1392,0.1441,0.1528,0.1575,0.1663,0.1645,0.1743,0.1715,0.1732,0.1746,0.1748,0.162,0.1574,0.1663,0.175,0.1748,0.1747,0.1745,0.1744,0,0.1022,0.1058,0.1075,0.1087,0.114,0.1178,0.1228,0.132,0.1375,0.1508,0.157,0.1664,0.1747,0.1788,0.1818,0.1803,0.1902,0.1884,0.1762,0.1751,0.1856,0.1846,0.1946,0.1946,0.1946,0.1946,0.1945,0,0.099,0.1009,0.1067,0.1072,0.112,0.1179,0.1247,0.1324,0.1437,0.1508,0.1616,0.1686,0.1793,0.1852,0.1855,0.1839,0.1939,0.1776,0.1765,0.1857,0.1848,0.1863,0.1852,0.1948,0.1947,0.1947,0.1947,0,0.0936,0.0976,0.0997,0.1064,0.1102,0.1144,0.1251,0.1289,0.143,0.1539,0.1593,0.174,0.182,0.1873,0.1949,0.1883,0.188,0.1843,0.1931,0.1923,0.1684,0.1674,0.1723,0.1719,0.1715,0.1712,0.1709,0,0.0901,0.0905,0.0982,0.101,0.1041,0.1116,0.1155,0.1281,0.1328,0.1544,0.158,0.1726,0.1797,0.1799,0.1853,0.1846,0.1814,0.1796,0.1741,0.168,0.1666,0.1661,0.1656,0.1703,0.1703,0.1702,0.1701,0,0.082,0.0855,0.087,0.094,0.0983,0.1017,0.1097,0.1127,0.1281,0.1422,0.1544,0.1604,0.1688,0.173,0.1735,0.172,0.1801,0.1757,0.1764,0.1712,0.1657,0.1645,0.1644,0.1688,0.1689,0.1691,0.1691,0,0.0765,0.0754,0.0789,0.0855,0.0894,0.0905,0.0957,0.1024,0.1103,0.135,0.1383,0.1543,0.1685,0.1664,0.1663,0.1642,0.1611,0.1546,0.1564,0.1579,0.1496,0.1402,0.1355,0,0,0,0,0,0.0693,0.0687,0.0715,0.0751,0.0777,0.082,0.0905,0.0959,0.112,0.117,0.1283,0.1357,0.1421,0.1491,0.1436,0.1546,0.1578,0.1469,0.1503,0.1615,0.163,0.1542,0,0,0,0,0,0,0.0656,0.065,0.0676,0.065,0.0667,0.0677,0.0728,0.0836,0.0875,0.1069,0.111,0.1263,0.1329,0.1448,0.1414,0.1426,0.1411,0.1561,0.1557,0.1607,0.1621,0.1633,0.1547,0,0,0,0,0]},{"header":{"parameterUnit":"m.s-1","parameterCategory":2,"la1":30.2991,"la2":30.254,"lo1":-89.0895,"lo2":-89.0444,"dy":0.0017,"dx":0.0017,"nx":28,"ny":28,"refTime":"2025-01-17T09:00:00:Z","depth":"4","parameterNumber":3,"parameterNumberName":"V-component_of_CURRENTS"},"data":[0,0,0,0,0,0,0,0,0,0,0,0,0,0,0,0,0,0,0,0,0,0,0,0,0,0,0,0,0,0,0,0,0,0,0,0,0,0,0,0,0,0,0,0,0,0,0,0,0,0,0,0,0,0,0,0,0,0,0.0129,0.0129,0,0.014,0.014,0.0141,0.015,0.015,0.015,0.015,0.0145,0.0145,0.0145,0,0,0,0,0,0,0,0,0,0,0,0,0,0.0098,0.0098,0.0129,0.0129,0.0129,0.014,0.014,0.0141,0.015,0.015,0.015,0.015,0.0145,0.0145,0.0144,0,0,0,0,0,0,0,0,0,0,0,0,0,0.0111,0.0099,0.0129,0.0135,0.0136,0.014,0.014,0.0141,0.015,0.015,0.015,0.015,0.0145,0.0145,0.0144,0.0141,0,0,0.0144,0.0143,0,0,0,0,0,0,0,0,0.011,0.0112,0.0134,0.0135,0.0135,0.0143,0.0127,0.014,0.015,0.0145,0.015,0.015,0.0143,0.0143,0.0145,0.014,0.014,0.0144,0.0143,0.0143,0.0143,0,0,0,0,0,0,0,0.0109,0.0111,0.0134,0.0134,0.0135,0.0131,0.0133,0.013,0.0143,0.0145,0.0146,0.0147,0.0143,0.0145,0.0145,0.014,0.0144,0.0143,0.0143,0.0143,0.0128,0.0127,0,0,0,0,0,0,0.0108,0.0111,0.0134,0.0134,0.0122,0.0131,0.0134,0.0141,0.0143,0.0144,0.0146,0.0147,0.0146,0.0145,0.0145,0.0149,0.0143,0.0143,0.0143,0.0128,0.0128,0.0127,0,0,0,0,0,0,0.0107,0.011,0.0133,0.0122,0.0124,0.0132,0.014,0.0141,0.0147,0.0144,0.0145,0.0151,0.0146,0.0145,0.0144,0.0149,0.0143,0.0143,0.0128,0.0128,0.0127,0.0152,0,0,0,0,0,0,0.0107,0.011,0.0113,0.0122,0.0125,0.0141,0.014,0.0141,0.0146,0.0147,0.0148,0.0148,0.0146,0.0145,0.0144,0.0148,0.0142,0.0128,0.0128,0.0128,0.0151,0.0153,0.0153,0,0,0,0,0,0.0106,0.0114,0.0114,0.0116,0.013,0.0141,0.0142,0.0147,0.0147,0.0152,0.015,0.0148,0.0141,0.0145,0.0144,0.0148,0.0129,0.0128,0.0128,0.0151,0.0152,0.0153,0,0,0,0,0,0,0.0101,0.0116,0.0116,0.0127,0.0134,0.0142,0.0148,0.0148,0.0151,0.0153,0.0148,0.0147,0.0147,0.0141,0.0144,0.014,0.0133,0.0133,0.0151,0.0152,0.0153,0.0167,0.0142,0,0,0,0,0,0.0101,0.0112,0.0121,0.013,0.0135,0.014,0.0144,0.0149,0.0153,0.0155,0.0153,0.0148,0.0143,0.0143,0.0139,0.0139,0.0123,0.0138,0.0139,0.014,0.0149,0.0123,0.0123,0.0126,0.0126,0.0126,0,0,0.01,0.011,0.0116,0.0129,0.0135,0.0153,0.0143,0.0155,0.0168,0.0153,0.0165,0.0152,0.0143,0.0144,0.0143,0.0141,0.0129,0.014,0.0141,0.0149,0.0123,0.0122,0.0122,0.0125,0.0125,0.0125,0,0,0.0115,0.0115,0.0135,0.0141,0.0154,0.016,0.0164,0.0174,0.0176,0.0182,0.0172,0.0162,0.0158,0.0153,0.0149,0.0151,0.0134,0.0146,0.0166,0.014,0.014,0.014,0.0113,0.011,0.0148,0.0148,0.0148,0,0.0115,0.0142,0.014,0.016,0.017,0.0167,0.019,0.0192,0.0198,0.0199,0.0189,0.0176,0.0164,0.0165,0.0165,0.0155,0.0136,0.0165,0.0143,0.0142,0.0141,0.0114,0.011,0.0149,0.0149,0.0149,0.0149,0,0.0148,0.0167,0.0178,0.0205,0.0212,0.023,0.0234,0.0241,0.0238,0.0234,0.0228,0.0207,0.0202,0.0189,0.0179,0.017,0.0156,0.0146,0.0143,0.0143,0.0113,0.0109,0.0151,0.0151,0.015,0.015,0,0,0.0162,0.0197,0.0201,0.0222,0.0238,0.0253,0.0269,0.0284,0.0297,0.028,0.0289,0.0263,0.0246,0.0239,0.0219,0.0192,0.0163,0.017,0.0168,0.0149,0.0104,0.0089,0.0083,0.0148,0.0148,0.0148,0.0083,0,0.0193,0.0242,0.0248,0.0291,0.0318,0.0315,0.0333,0.0339,0.0334,0.0338,0.0303,0.0302,0.0267,0.0266,0.0233,0.0185,0.0155,0.0181,0.0103,0.01,0.0092,0.0079,0.0146,0.008,0.0079,0.0079,0.0078,0,0.0225,0.0258,0.0308,0.0345,0.0355,0.0379,0.0407,0.0422,0.0417,0.041,0.0393,0.0364,0.0332,0.0299,0.0215,0.0234,0.0174,0.0127,0.0124,0.0102,0.0078,0.008,0.007,0.0071,0.0072,0.0072,0.0072,0,0.0245,0.0296,0.034,0.0351,0.0392,0.0415,0.044,0.0448,0.0468,0.0462,0.0467,0.0416,0.0401,0.0319,0.0217,0.0218,0.0113,0.0103,0.0032,0.003,0.0053,0.0054,0.004,0.004,0.004,0.0041,0.0041,0,0.0273,0.0307,0.0358,0.0382,0.0443,0.0452,0.0505,0.0519,0.0535,0.056,0.0512,0.051,0.0405,0.033,0.0232,0.0117,0.0123,0.0035,0.0013,0.0063,0.0066,0.0049,0.0051,0.0038,0.0039,0.0039,0.004,0,0.0282,0.0314,0.0369,0.0428,0.0457,0.0499,0.0568,0.06,0.0607,0.0639,0.0641,0.0583,0.0485,0.0362,0.0226,0.0145,0.0031,-0.0013,0.0046,0.0029,-0.0039,-0.0035,-0.0089,-0.009,-0.0091,-0.0092,-0.0092,0,0.0291,0.0323,0.0407,0.0454,0.0487,0.0557,0.0609,0.0643,0.0677,0.0679,0.0694,0.0614,0.0555,0.0354,0.0219,0.003,0.0001,-0.0056,-0.0046,-0.0035,-0.0052,-0.0046,-0.0041,-0.0094,-0.0094,-0.0094,-0.0094,0,0.0309,0.0337,0.0385,0.0489,0.0559,0.0631,0.0705,0.0733,0.0762,0.0768,0.0738,0.0634,0.0519,0.0359,0.0208,0.0071,-0.0016,-0.0065,-0.0064,-0.0055,-0.0042,-0.0056,-0.005,-0.0097,-0.0097,-0.0097,-0.0097,0,0.0321,0.0359,0.0431,0.0521,0.0606,0.068,0.0718,0.0759,0.0792,0.079,0.0776,0.0649,0.0582,0.0379,0.0237,0.0102,0.0071,0.0033,0.0029,0.003,0.0079,0.0115,0.0089,0,0,0,0,0,0.0333,0.0386,0.0464,0.0558,0.0635,0.0692,0.0772,0.0796,0.0823,0.0811,0.0796,0.0687,0.0484,0.0397,0.0259,0.021,0.0038,0.0044,-0.0009,-0.0114,-0.0111,-0.0076,0,0,0,0,0,0,0.0348,0.0418,0.0464,0.0568,0.0632,0.0723,0.0775,0.0796,0.079,0.0792,0.0688,0.0648,0.045,0.0558,0.0253,0.0212,0.0159,-0.0047,-0.005,-0.0117,-0.0113,-0.011,-0.0073,0,0,0,0,0]}]]